Time,TemperatureF,DewpointF,PressureIn,WindDirection,WindDirectionDegrees,WindSpeedMPH,WindSpeedGustMPH,Humidity,HourlyPrecipIn,Conditions,Clouds,dailyrainin,SoftwareType,DateUTC
2013-05-23 00:01:00,63.2,61.7,29.81,NE,54,0.0,5.0,95,0.02,,,0.00,WUHU216DAVISVP2,2013-05-23 04:01:00,
2013-05-23 00:06:00,63.2,61.7,29.81,WNW,303,1.0,5.0,95,0.02,,,0.00,WUHU216DAVISVP2,2013-05-23 04:06:00,
2013-05-23 00:11:00,63.2,62.0,29.81,WNW,283,1.0,5.0,96,0.02,,,0.00,WUHU216DAVISVP2,2013-05-23 04:11:00,
2013-05-23 00:16:00,63.2,62.0,29.80,NW,305,0.0,3.0,96,0.01,,,0.00,WUHU216DAVISVP2,2013-05-23 04:16:00,
2013-05-23 00:21:00,63.1,61.9,29.80,WNW,294,0.0,4.0,96,0.01,,,0.00,WUHU216DAVISVP2,2013-05-23 04:21:00,
2013-05-23 00:26:00,63.1,61.9,29.80,West,273,1.0,4.0,96,0.01,,,0.00,WUHU216DAVISVP2,2013-05-23 04:26:00,
2013-05-23 00:31:00,63.0,61.8,29.80,West,274,0.0,4.0,96,0.01,,,0.00,WUHU216DAVISVP2,2013-05-23 04:31:00,
2013-05-23 00:36:00,62.9,61.7,29.80,West,274,2.0,3.0,96,0.01,,,0.00,WUHU216DAVISVP2,2013-05-23 04:36:00,
2013-05-23 00:41:00,62.9,61.7,29.80,WNW,295,0.0,3.0,96,0.01,,,0.00,WUHU216DAVISVP2,2013-05-23 04:41:00,
2013-05-23 00:46:00,62.7,61.5,29.80,WNW,295,0.0,3.0,96,0.00,,,0.00,WUHU216DAVISVP2,2013-05-23 04:46:00,
2013-05-23 00:51:00,62.7,61.5,29.80,WNW,283,0.0,3.0,96,0.00,,,0.00,WUHU216DAVISVP2,2013-05-23 04:51:00,
2013-05-23 00:56:00,62.8,61.6,29.80,West,280,0.0,2.0,96,0.00,,,0.00,WUHU216DAVISVP2,2013-05-23 04:56:00,
2013-05-23 01:01:00,62.7,61.5,29.81,West,280,0.0,2.0,96,0.00,,,0.00,WUHU216DAVISVP2,2013-05-23 05:01:00,
2013-05-23 01:06:00,62.7,61.5,29.81,West,280,0.0,2.0,96,0.00,,,0.00,WUHU216DAVISVP2,2013-05-23 05:06:00,
2013-05-23 01:11:00,62.6,61.4,29.81,West,280,0.0,1.0,96,0.00,,,0.00,WUHU216DAVISVP2,2013-05-23 05:11:00,
2013-05-23 01:16:00,62.6,61.4,29.81,West,280,0.0,0.0,96,0.00,,,0.00,WUHU216DAVISVP2,2013-05-23 05:16:00,
2013-05-23 01:21:00,62.6,61.4,29.81,West,280,0.0,0.0,96,0.00,,,0.00,WUHU216DAVISVP2,2013-05-23 05:21:00,
2013-05-23 01:26:00,62.6,61.4,29.81,West,280,0.0,0.0,96,0.00,,,0.00,WUHU216DAVISVP2,2013-05-23 05:26:00,
2013-05-23 01:31:00,62.6,61.7,29.81,West,280,0.0,0.0,97,0.00,,,0.00,WUHU216DAVISVP2,2013-05-23 05:31:00,
2013-05-23 01:36:00,62.6,61.7,29.81,West,280,0.0,0.0,97,0.00,,,0.00,WUHU216DAVISVP2,2013-05-23 05:36:00,
2013-05-23 01:41:00,62.5,61.6,29.81,West,280,0.0,0.0,97,0.00,,,0.00,WUHU216DAVISVP2,2013-05-23 05:41:00,
2013-05-23 01:46:00,62.6,61.7,29.81,WNW,283,1.0,2.0,97,0.00,,,0.00,WUHU216DAVISVP2,2013-05-23 05:46:00,
2013-05-23 01:51:00,62.6,61.7,29.82,West,275,2.0,2.0,97,0.00,,,0.00,WUHU216DAVISVP2,2013-05-23 05:51:00,
2013-05-23 01:56:00,62.6,61.7,29.82,West,274,1.0,2.0,97,0.00,,,0.00,WUHU216DAVISVP2,2013-05-23 05:56:00,
2013-05-23 02:01:00,62.7,61.8,29.85,WSW,238,0.0,5.0,97,0.01,,,0.01,WUHU216DAVISVP2,2013-05-23 06:01:00,
2013-05-23 02:06:00,62.6,61.7,29.84,South,183,3.0,11.0,97,0.01,,,0.01,WUHU216DAVISVP2,2013-05-23 06:06:00,
2013-05-23 02:11:00,62.7,61.2,29.83,West,280,3.0,11.0,95,0.01,,,0.01,WUHU216DAVISVP2,2013-05-23 06:11:00,
2013-05-23 02:16:00,62.9,61.1,29.83,West,280,0.0,11.0,94,0.01,,,0.01,WUHU216DAVISVP2,2013-05-23 06:16:00,
2013-05-23 02:21:00,63.1,61.3,29.82,West,280,1.0,9.0,94,0.01,,,0.01,WUHU216DAVISVP2,2013-05-23 06:21:00,
2013-05-23 02:26:00,63.1,61.3,29.83,West,280,0.0,8.0,94,0.01,,,0.01,WUHU216DAVISVP2,2013-05-23 06:26:00,
2013-05-23 02:31:00,63.1,61.3,29.82,West,278,0.0,8.0,94,0.01,,,0.01,WUHU216DAVISVP2,2013-05-23 06:31:00,
2013-05-23 02:36:00,63.2,61.4,29.82,West,278,0.0,2.0,94,0.01,,,0.01,WUHU216DAVISVP2,2013-05-23 06:36:00,
2013-05-23 02:41:00,63.1,61.3,29.81,West,278,0.0,2.0,94,0.01,,,0.01,WUHU216DAVISVP2,2013-05-23 06:41:00,
2013-05-23 02:46:00,63.0,61.2,29.81,West,278,0.0,1.0,94,0.01,,,0.01,WUHU216DAVISVP2,2013-05-23 06:46:00,
2013-05-23 02:51:00,62.9,61.1,29.81,NNE,31,1.0,2.0,94,0.01,,,0.01,WUHU216DAVISVP2,2013-05-23 06:51:00,
2013-05-23 02:56:00,62.8,61.3,29.80,NNE,33,0.0,2.0,95,0.01,,,0.01,WUHU216DAVISVP2,2013-05-23 06:56:00,
2013-05-23 03:01:00,62.7,61.2,29.80,NNE,33,0.0,2.0,95,0.00,,,0.01,WUHU216DAVISVP2,2013-05-23 07:01:00,
2013-05-23 03:06:00,62.7,61.2,29.80,NNE,33,0.0,2.0,95,0.00,,,0.01,WUHU216DAVISVP2,2013-05-23 07:06:00,
2013-05-23 03:11:00,62.6,61.1,29.80,NW,316,1.0,2.0,95,0.00,,,0.01,WUHU216DAVISVP2,2013-05-23 07:11:00,
2013-05-23 03:16:00,62.5,61.0,29.80,WNW,287,1.0,2.0,95,0.00,,,0.01,WUHU216DAVISVP2,2013-05-23 07:16:00,
2013-05-23 03:21:00,62.4,60.9,29.80,North,4,1.0,3.0,95,0.00,,,0.01,WUHU216DAVISVP2,2013-05-23 07:21:00,
2013-05-23 03:26:00,62.3,61.1,29.80,NNW,347,0.0,4.0,96,0.00,,,0.01,WUHU216DAVISVP2,2013-05-23 07:26:00,
2013-05-23 03:31:00,62.2,61.0,29.80,NNW,347,0.0,4.0,96,0.00,,,0.01,WUHU216DAVISVP2,2013-05-23 07:31:00,
2013-05-23 03:36:00,62.1,60.9,29.80,NNW,336,0.0,4.0,96,0.00,,,0.01,WUHU216DAVISVP2,2013-05-23 07:36:00,
2013-05-23 03:41:00,62.0,60.8,29.80,NNW,336,0.0,2.0,96,0.00,,,0.01,WUHU216DAVISVP2,2013-05-23 07:41:00,
2013-05-23 03:46:00,62.0,60.8,29.80,NNW,336,0.0,1.0,96,0.00,,,0.01,WUHU216DAVISVP2,2013-05-23 07:46:00,
2013-05-23 03:51:00,61.9,60.7,29.80,NNW,336,0.0,1.0,96,0.00,,,0.01,WUHU216DAVISVP2,2013-05-23 07:51:00,
2013-05-23 03:56:00,61.8,60.6,29.80,NNW,336,0.0,1.0,96,0.00,,,0.01,WUHU216DAVISVP2,2013-05-23 07:56:00,
2013-05-23 04:01:00,61.8,60.6,29.79,NNW,336,0.0,0.0,96,0.00,,,0.01,WUHU216DAVISVP2,2013-05-23 08:01:00,
2013-05-23 04:06:00,61.8,60.9,29.79,NNW,336,0.0,1.0,97,0.00,,,0.01,WUHU216DAVISVP2,2013-05-23 08:06:00,
2013-05-23 04:11:00,61.8,60.9,29.80,NNW,336,0.0,1.0,97,0.00,,,0.01,WUHU216DAVISVP2,2013-05-23 08:11:00,
2013-05-23 04:16:00,61.8,60.6,29.80,NNW,336,0.0,1.0,96,0.00,,,0.01,WUHU216DAVISVP2,2013-05-23 08:16:00,
2013-05-23 04:21:00,61.7,60.5,29.79,NNW,336,0.0,1.0,96,0.00,,,0.01,WUHU216DAVISVP2,2013-05-23 08:21:00,
2013-05-23 04:26:00,61.7,60.5,29.79,NNW,336,0.0,0.0,96,0.00,,,0.01,WUHU216DAVISVP2,2013-05-23 08:26:00,
2013-05-23 04:31:00,61.7,60.8,29.79,NNW,336,0.0,0.0,97,0.00,,,0.01,WUHU216DAVISVP2,2013-05-23 08:31:00,
2013-05-23 04:36:00,61.6,60.7,29.79,NNW,336,0.0,0.0,97,0.00,,,0.01,WUHU216DAVISVP2,2013-05-23 08:36:00,
2013-05-23 04:41:00,61.6,60.7,29.79,NNW,336,0.0,0.0,97,0.00,,,0.01,WUHU216DAVISVP2,2013-05-23 08:41:00,
2013-05-23 04:46:00,61.6,60.7,29.79,NNW,336,0.0,0.0,97,0.00,,,0.01,WUHU216DAVISVP2,2013-05-23 08:46:00,
2013-05-23 04:51:00,61.6,60.7,29.79,NNW,336,0.0,0.0,97,0.00,,,0.01,WUHU216DAVISVP2,2013-05-23 08:51:00,
2013-05-23 04:56:00,61.6,60.7,29.79,NNW,336,0.0,1.0,97,0.00,,,0.01,WUHU216DAVISVP2,2013-05-23 08:56:00,
2013-05-23 05:01:00,61.6,60.7,29.79,NNW,336,0.0,1.0,97,0.00,,,0.01,WUHU216DAVISVP2,2013-05-23 09:01:00,
2013-05-23 05:06:00,61.5,60.6,29.79,NNW,336,0.0,1.0,97,0.00,,,0.01,WUHU216DAVISVP2,2013-05-23 09:06:00,
2013-05-23 05:11:00,61.5,60.6,29.79,NNW,336,0.0,1.0,97,0.00,,,0.01,WUHU216DAVISVP2,2013-05-23 09:11:00,
2013-05-23 05:16:00,61.5,60.6,29.79,NNW,336,0.0,0.0,97,0.00,,,0.01,WUHU216DAVISVP2,2013-05-23 09:16:00,
2013-05-23 05:21:00,61.5,60.6,29.79,NNW,336,0.0,0.0,97,0.00,,,0.01,WUHU216DAVISVP2,2013-05-23 09:21:00,
2013-05-23 05:26:00,61.5,60.6,29.79,NNW,336,0.0,0.0,97,0.00,,,0.01,WUHU216DAVISVP2,2013-05-23 09:26:00,
2013-05-23 05:31:00,61.5,60.6,29.80,NNW,336,0.0,0.0,97,0.00,,,0.01,WUHU216DAVISVP2,2013-05-23 09:31:00,
2013-05-23 05:36:00,61.5,60.6,29.80,NNW,336,0.0,0.0,97,0.00,,,0.01,WUHU216DAVISVP2,2013-05-23 09:36:00,
2013-05-23 05:41:00,61.5,60.6,29.80,NNW,336,0.0,0.0,97,0.00,,,0.01,WUHU216DAVISVP2,2013-05-23 09:41:00,
2013-05-23 05:46:00,61.4,60.5,29.80,NNW,336,0.0,1.0,97,0.00,,,0.01,WUHU216DAVISVP2,2013-05-23 09:46:00,
2013-05-23 05:51:00,61.4,60.5,29.80,NNW,336,0.0,1.0,97,0.00,,,0.01,WUHU216DAVISVP2,2013-05-23 09:51:00,
2013-05-23 05:56:00,61.4,60.5,29.80,NNW,336,0.0,1.0,97,0.00,,,0.01,WUHU216DAVISVP2,2013-05-23 09:56:00,
2013-05-23 06:01:00,61.4,60.5,29.80,NNW,336,0.0,1.0,97,0.01,,,0.02,WUHU216DAVISVP2,2013-05-23 10:01:00,
2013-05-23 06:06:00,61.4,60.8,29.80,NNW,336,0.0,0.0,98,0.01,,,0.02,WUHU216DAVISVP2,2013-05-23 10:06:00,
2013-05-23 06:11:00,61.5,60.9,29.80,NNW,336,0.0,0.0,98,0.01,,,0.02,WUHU216DAVISVP2,2013-05-23 10:11:00,
2013-05-23 06:16:00,61.6,61.0,29.81,NNW,336,0.0,1.0,98,0.01,,,0.02,WUHU216DAVISVP2,2013-05-23 10:16:00,
2013-05-23 06:21:00,61.6,61.0,29.81,NNW,336,0.0,1.0,98,0.01,,,0.02,WUHU216DAVISVP2,2013-05-23 10:21:00,
2013-05-23 06:26:00,61.5,60.9,29.81,NNW,336,0.0,1.0,98,0.01,,,0.02,WUHU216DAVISVP2,2013-05-23 10:26:00,
2013-05-23 06:31:00,61.5,60.9,29.81,NNE,30,0.0,1.0,98,0.02,,,0.03,WUHU216DAVISVP2,2013-05-23 10:31:00,
2013-05-23 06:36:00,61.6,61.0,29.81,NNE,30,0.0,1.0,98,0.02,,,0.03,WUHU216DAVISVP2,2013-05-23 10:36:00,
2013-05-23 06:41:00,61.7,61.1,29.81,NNE,31,0.0,2.0,98,0.02,,,0.03,WUHU216DAVISVP2,2013-05-23 10:41:00,
2013-05-23 06:46:00,61.7,61.1,29.81,NNE,31,0.0,2.0,98,0.03,,,0.04,WUHU216DAVISVP2,2013-05-23 10:46:00,
2013-05-23 06:51:00,61.7,61.1,29.81,NNE,31,0.0,2.0,98,0.03,,,0.04,WUHU216DAVISVP2,2013-05-23 10:51:00,
2013-05-23 06:56:00,61.7,61.1,29.81,NNE,31,1.0,1.0,98,0.03,,,0.04,WUHU216DAVISVP2,2013-05-23 10:56:00,
2013-05-23 07:01:00,61.7,61.1,29.82,NNE,31,0.0,1.0,98,0.02,,,0.04,WUHU216DAVISVP2,2013-05-23 11:01:00,
2013-05-23 07:06:00,61.7,61.1,29.82,NNE,31,0.0,1.0,98,0.02,,,0.04,WUHU216DAVISVP2,2013-05-23 11:06:00,
2013-05-23 07:11:00,61.7,61.1,29.82,NNE,31,0.0,1.0,98,0.02,,,0.04,WUHU216DAVISVP2,2013-05-23 11:11:00,
2013-05-23 07:16:00,61.7,61.1,29.82,NNE,31,0.0,2.0,98,0.02,,,0.04,WUHU216DAVISVP2,2013-05-23 11:16:00,
2013-05-23 07:21:00,61.7,61.1,29.82,NNE,31,0.0,2.0,98,0.02,,,0.04,WUHU216DAVISVP2,2013-05-23 11:21:00,
2013-05-23 07:26:00,61.8,61.2,29.82,NNE,31,0.0,2.0,98,0.02,,,0.04,WUHU216DAVISVP2,2013-05-23 11:26:00,
2013-05-23 07:31:00,62.0,61.4,29.82,NNE,31,0.0,1.0,98,0.01,,,0.04,WUHU216DAVISVP2,2013-05-23 11:31:00,
2013-05-23 07:36:00,62.1,61.5,29.82,NNE,31,0.0,1.0,98,0.01,,,0.04,WUHU216DAVISVP2,2013-05-23 11:36:00,
2013-05-23 07:41:00,62.2,61.6,29.82,NNE,31,0.0,1.0,98,0.01,,,0.04,WUHU216DAVISVP2,2013-05-23 11:41:00,
2013-05-23 07:46:00,62.3,61.7,29.82,NNE,31,0.0,1.0,98,0.00,,,0.04,WUHU216DAVISVP2,2013-05-23 11:46:00,
2013-05-23 07:51:00,62.4,61.8,29.82,NNE,31,0.0,1.0,98,0.00,,,0.04,WUHU216DAVISVP2,2013-05-23 11:51:00,
2013-05-23 07:56:00,62.6,62.0,29.82,NNE,31,0.0,1.0,98,0.00,,,0.04,WUHU216DAVISVP2,2013-05-23 11:56:00,
2013-05-23 08:01:00,62.8,62.2,29.82,NNE,31,0.0,1.0,98,0.00,,,0.04,WUHU216DAVISVP2,2013-05-23 12:01:00,
2013-05-23 08:06:00,63.0,62.4,29.82,NNE,31,0.0,1.0,98,0.00,,,0.04,WUHU216DAVISVP2,2013-05-23 12:06:00,
2013-05-23 08:11:00,63.2,62.6,29.82,NNE,31,0.0,1.0,98,0.00,,,0.04,WUHU216DAVISVP2,2013-05-23 12:11:00,
2013-05-23 08:16:00,63.5,62.9,29.82,NNE,31,0.0,1.0,98,0.00,,,0.04,WUHU216DAVISVP2,2013-05-23 12:16:00,
2013-05-23 08:21:00,63.7,63.1,29.82,NNE,31,0.0,0.0,98,0.00,,,0.04,WUHU216DAVISVP2,2013-05-23 12:21:00,
2013-05-23 08:26:00,64.0,63.4,29.82,NNE,31,0.0,0.0,98,0.00,,,0.04,WUHU216DAVISVP2,2013-05-23 12:26:00,
2013-05-23 08:31:00,64.1,63.5,29.82,NNE,31,0.0,0.0,98,0.00,,,0.04,WUHU216DAVISVP2,2013-05-23 12:31:00,
2013-05-23 08:36:00,64.1,63.5,29.82,NNE,31,0.0,0.0,98,0.00,,,0.04,WUHU216DAVISVP2,2013-05-23 12:36:00,
2013-05-23 08:41:00,64.2,63.3,29.82,NNE,31,0.0,1.0,97,0.00,,,0.04,WUHU216DAVISVP2,2013-05-23 12:41:00,
2013-05-23 08:46:00,64.3,63.4,29.82,NNE,31,0.0,1.0,97,0.00,,,0.04,WUHU216DAVISVP2,2013-05-23 12:46:00,
2013-05-23 08:51:00,64.4,63.5,29.82,NNE,31,0.0,1.0,97,0.00,,,0.04,WUHU216DAVISVP2,2013-05-23 12:51:00,
2013-05-23 08:56:00,64.5,63.6,29.82,NNE,31,0.0,1.0,97,0.00,,,0.04,WUHU216DAVISVP2,2013-05-23 12:56:00,
2013-05-23 09:01:00,64.8,63.9,29.82,NNE,31,0.0,1.0,97,0.00,,,0.04,WUHU216DAVISVP2,2013-05-23 13:01:00,
2013-05-23 09:06:00,64.9,64.0,29.82,South,176,2.0,4.0,97,0.00,,,0.04,WUHU216DAVISVP2,2013-05-23 13:06:00,
2013-05-23 09:11:00,64.9,63.4,29.83,SSW,208,0.0,4.0,95,0.00,,,0.04,WUHU216DAVISVP2,2013-05-23 13:11:00,
2013-05-23 09:16:00,65.5,64.0,29.82,South,181,0.0,4.0,95,0.00,,,0.04,WUHU216DAVISVP2,2013-05-23 13:16:00,
2013-05-23 09:21:00,65.9,64.1,29.82,SSW,199,0.0,4.0,94,0.00,,,0.04,WUHU216DAVISVP2,2013-05-23 13:21:00,
2013-05-23 09:26:00,66.1,63.7,29.82,SSW,193,0.0,3.0,92,0.00,,,0.04,WUHU216DAVISVP2,2013-05-23 13:26:00,
2013-05-23 09:31:00,66.2,63.8,29.82,SSW,196,0.0,4.0,92,0.00,,,0.04,WUHU216DAVISVP2,2013-05-23 13:31:00,
2013-05-23 09:36:00,66.2,63.5,29.83,SSW,193,2.0,4.0,91,0.01,,,0.05,WUHU216DAVISVP2,2013-05-23 13:36:00,
2013-05-23 09:41:00,66.2,63.5,29.83,SSW,192,0.0,6.0,91,0.01,,,0.05,WUHU216DAVISVP2,2013-05-23 13:41:00,
2013-05-23 09:46:00,66.2,63.5,29.83,SSW,202,1.0,6.0,91,0.01,,,0.05,WUHU216DAVISVP2,2013-05-23 13:46:00,
2013-05-23 09:51:00,66.2,63.5,29.83,SSW,201,0.0,6.0,91,0.01,,,0.05,WUHU216DAVISVP2,2013-05-23 13:51:00,
2013-05-23 09:56:00,66.2,63.5,29.83,SW,219,0.0,6.0,91,0.01,,,0.05,WUHU216DAVISVP2,2013-05-23 13:56:00,
2013-05-23 10:01:00,66.3,63.6,29.83,SSW,208,1.0,5.0,91,0.01,,,0.05,WUHU216DAVISVP2,2013-05-23 14:01:00,
2013-05-23 10:06:00,66.5,64.1,29.82,South,172,1.0,5.0,92,0.01,,,0.05,WUHU216DAVISVP2,2013-05-23 14:06:00,
2013-05-23 10:11:00,66.9,64.5,29.82,SSE,154,0.0,5.0,92,0.01,,,0.05,WUHU216DAVISVP2,2013-05-23 14:11:00,
2013-05-23 10:16:00,67.2,64.1,29.82,SSW,205,0.0,5.0,90,0.01,,,0.05,WUHU216DAVISVP2,2013-05-23 14:16:00,
2013-05-23 10:21:00,67.6,64.5,29.82,SSW,205,0.0,3.0,90,0.01,,,0.05,WUHU216DAVISVP2,2013-05-23 14:21:00,
2013-05-23 10:26:00,68.1,64.7,29.82,SSW,205,0.0,3.0,89,0.01,,,0.05,WUHU216DAVISVP2,2013-05-23 14:26:00,
2013-05-23 10:31:00,68.5,64.1,29.82,SSW,198,0.0,4.0,86,0.01,,,0.05,WUHU216DAVISVP2,2013-05-23 14:31:00,
2013-05-23 10:36:00,68.7,64.0,29.82,SW,220,0.0,9.0,85,0.00,,,0.05,WUHU216DAVISVP2,2013-05-23 14:36:00,
2013-05-23 10:41:00,68.6,64.2,29.82,SSW,193,1.0,9.0,86,0.00,,,0.05,WUHU216DAVISVP2,2013-05-23 14:41:00,
2013-05-23 10:46:00,68.6,63.9,29.83,SW,233,0.0,9.0,85,0.00,,,0.05,WUHU216DAVISVP2,2013-05-23 14:46:00,
2013-05-23 10:51:00,68.8,64.1,29.82,SSW,197,2.0,9.0,85,0.00,,,0.05,WUHU216DAVISVP2,2013-05-23 14:51:00,
2013-05-23 10:56:00,68.9,63.9,29.82,SSW,209,2.0,8.0,84,0.00,,,0.05,WUHU216DAVISVP2,2013-05-23 14:56:00,
2013-05-23 11:01:00,69.3,64.6,29.82,SSW,200,4.0,8.0,85,0.00,,,0.05,WUHU216DAVISVP2,2013-05-23 15:01:00,
2013-05-23 11:06:00,69.7,64.0,29.83,NW,320,6.0,8.0,82,0.00,,,0.05,WUHU216DAVISVP2,2013-05-23 15:06:00,
2013-05-23 11:11:00,69.8,63.7,29.82,WSW,247,1.0,7.0,81,0.00,,,0.05,WUHU216DAVISVP2,2013-05-23 15:11:00,
2013-05-23 11:16:00,69.8,63.4,29.82,West,271,1.0,7.0,80,0.00,,,0.05,WUHU216DAVISVP2,2013-05-23 15:16:00,
2013-05-23 11:21:00,69.9,63.5,29.83,WNW,303,5.0,8.0,80,0.00,,,0.05,WUHU216DAVISVP2,2013-05-23 15:21:00,
2013-05-23 11:26:00,69.8,63.1,29.82,NW,312,4.0,8.0,79,0.00,,,0.05,WUHU216DAVISVP2,2013-05-23 15:26:00,
2013-05-23 11:31:00,69.8,63.1,29.82,NW,314,1.0,8.0,79,0.00,,,0.05,WUHU216DAVISVP2,2013-05-23 15:31:00,
2013-05-23 11:36:00,70.1,63.4,29.82,North,4,1.0,8.0,79,0.00,,,0.05,WUHU216DAVISVP2,2013-05-23 15:36:00,
2013-05-23 11:41:00,70.9,63.1,29.82,SSW,197,3.0,10.0,76,0.00,,,0.05,WUHU216DAVISVP2,2013-05-23 15:41:00,
2013-05-23 11:46:00,71.3,63.1,29.82,SSW,208,7.0,11.0,75,0.00,,,0.05,WUHU216DAVISVP2,2013-05-23 15:46:00,
2013-05-23 11:51:00,71.6,63.8,29.82,West,270,6.0,11.0,76,0.00,,,0.05,WUHU216DAVISVP2,2013-05-23 15:51:00,
2013-05-23 11:56:00,71.9,63.3,29.82,SSW,199,3.0,11.0,74,0.00,,,0.05,WUHU216DAVISVP2,2013-05-23 15:56:00,
2013-05-23 12:01:00,72.4,63.3,29.82,SW,216,0.0,9.0,73,0.00,,,0.05,WUHU216DAVISVP2,2013-05-23 16:01:00,
2013-05-23 12:06:00,72.9,62.9,29.82,SSW,197,2.0,12.0,71,0.00,,,0.05,WUHU216DAVISVP2,2013-05-23 16:06:00,
2013-05-23 12:11:00,73.1,63.1,29.82,SW,230,6.0,12.0,71,0.00,,,0.05,WUHU216DAVISVP2,2013-05-23 16:11:00,
2013-05-23 12:16:00,73.2,62.8,29.82,SSW,208,4.0,12.0,70,0.00,,,0.05,WUHU216DAVISVP2,2013-05-23 16:16:00,
2013-05-23 12:21:00,73.4,63.0,29.82,SSW,207,4.0,12.0,70,0.00,,,0.05,WUHU216DAVISVP2,2013-05-23 16:21:00,
2013-05-23 12:26:00,73.5,62.3,29.82,South,190,0.0,10.0,68,0.00,,,0.05,WUHU216DAVISVP2,2013-05-23 16:26:00,
2013-05-23 12:31:00,74.0,63.0,29.82,West,274,3.0,10.0,68,0.00,,,0.05,WUHU216DAVISVP2,2013-05-23 16:31:00,
2013-05-23 12:36:00,74.4,63.4,29.82,SW,218,0.0,10.0,68,0.00,,,0.05,WUHU216DAVISVP2,2013-05-23 16:36:00,
2013-05-23 12:41:00,74.5,61.7,29.81,SW,215,4.0,10.0,64,0.00,,,0.05,WUHU216DAVISVP2,2013-05-23 16:41:00,
2013-05-23 12:46:00,74.6,62.7,29.81,WNW,285,0.0,10.0,66,0.00,,,0.05,WUHU216DAVISVP2,2013-05-23 16:46:00,
2013-05-23 12:51:00,74.8,61.1,29.81,SW,214,4.0,10.0,62,0.00,,,0.05,WUHU216DAVISVP2,2013-05-23 16:51:00,
2013-05-23 12:56:00,74.8,62.9,29.80,SSW,194,6.0,10.0,66,0.00,,,0.05,WUHU216DAVISVP2,2013-05-23 16:56:00,
2013-05-23 13:01:00,74.8,61.6,29.80,SSW,195,5.0,10.0,63,0.00,,,0.05,WUHU216DAVISVP2,2013-05-23 17:01:00,
2013-05-23 13:06:00,74.6,60.9,29.80,SW,223,8.0,13.0,62,0.00,,,0.05,WUHU216DAVISVP2,2013-05-23 17:06:00,
2013-05-23 13:11:00,74.9,62.1,29.79,SW,214,3.0,13.0,64,0.00,,,0.05,WUHU216DAVISVP2,2013-05-23 17:11:00,
2013-05-23 13:16:00,75.3,60.7,29.79,WSW,258,0.0,13.0,60,0.00,,,0.05,WUHU216DAVISVP2,2013-05-23 17:16:00,
2013-05-23 13:21:00,75.2,61.0,29.79,SSW,212,1.0,13.0,61,0.00,,,0.05,WUHU216DAVISVP2,2013-05-23 17:21:00,
2013-05-23 13:26:00,75.4,60.3,29.79,South,191,3.0,12.0,59,0.00,,,0.05,WUHU216DAVISVP2,2013-05-23 17:26:00,
2013-05-23 13:31:00,75.7,60.6,29.78,SSW,211,1.0,12.0,59,0.00,,,0.05,WUHU216DAVISVP2,2013-05-23 17:31:00,
2013-05-23 13:36:00,76.0,62.7,29.78,SSW,193,4.0,8.0,63,0.00,,,0.05,WUHU216DAVISVP2,2013-05-23 17:36:00,
2013-05-23 13:41:00,76.5,60.8,29.78,WSW,239,0.0,8.0,58,0.00,,,0.05,WUHU216DAVISVP2,2013-05-23 17:41:00,
2013-05-23 13:46:00,77.0,61.8,29.78,SW,224,8.0,8.0,59,0.00,,,0.05,WUHU216DAVISVP2,2013-05-23 17:46:00,
2013-05-23 13:51:00,76.9,61.2,29.78,WSW,251,2.0,10.0,58,0.00,,,0.05,WUHU216DAVISVP2,2013-05-23 17:51:00,
2013-05-23 13:56:00,77.0,61.8,29.77,SW,217,2.0,10.0,59,0.00,,,0.05,WUHU216DAVISVP2,2013-05-23 17:56:00,
2013-05-23 14:01:00,76.9,59.5,29.77,SSW,212,4.0,10.0,55,0.00,,,0.05,WUHU216DAVISVP2,2013-05-23 18:01:00,
2013-05-23 14:06:00,76.6,60.2,29.77,SW,216,5.0,11.0,57,0.00,,,0.05,WUHU216DAVISVP2,2013-05-23 18:06:00,
2013-05-23 14:11:00,76.5,60.6,29.76,South,177,3.0,11.0,58,0.00,,,0.05,WUHU216DAVISVP2,2013-05-23 18:11:00,
2013-05-23 14:16:00,76.8,61.9,29.76,SW,226,6.0,11.0,60,0.00,,,0.05,WUHU216DAVISVP2,2013-05-23 18:16:00,
2013-05-23 14:21:00,76.8,59.4,29.76,SW,216,3.0,11.0,55,0.00,,,0.05,WUHU216DAVISVP2,2013-05-23 18:21:00,
2013-05-23 14:26:00,77.0,59.6,29.76,South,172,5.0,10.0,55,0.00,,,0.05,WUHU216DAVISVP2,2013-05-23 18:26:00,
2013-05-23 14:31:00,77.2,60.0,29.76,SSW,210,4.0,13.0,55,0.00,,,0.05,WUHU216DAVISVP2,2013-05-23 18:31:00,
2013-05-23 14:36:00,77.3,60.0,29.75,WNW,286,3.0,13.0,55,0.00,,,0.05,WUHU216DAVISVP2,2013-05-23 18:36:00,
2013-05-23 14:41:00,77.5,60.8,29.75,West,274,2.0,13.0,56,0.00,,,0.05,WUHU216DAVISVP2,2013-05-23 18:41:00,
2013-05-23 14:46:00,78.2,59.8,29.75,WSW,247,5.0,12.0,53,0.00,,,0.05,WUHU216DAVISVP2,2013-05-23 18:46:00,
2013-05-23 14:51:00,78.4,59.5,29.75,SSW,210,5.0,12.0,52,0.00,,,0.05,WUHU216DAVISVP2,2013-05-23 18:51:00,
2013-05-23 14:56:00,78.7,59.2,29.75,WNW,296,3.0,12.0,51,0.00,,,0.05,WUHU216DAVISVP2,2013-05-23 18:56:00,
2013-05-23 15:01:00,78.9,61.0,29.75,West,261,1.0,12.0,54,0.00,,,0.05,WUHU216DAVISVP2,2013-05-23 19:01:00,
2013-05-23 15:06:00,78.9,61.0,29.75,SW,222,4.0,9.0,54,0.00,,,0.05,WUHU216DAVISVP2,2013-05-23 19:06:00,
2013-05-23 15:11:00,78.8,60.4,29.75,SSW,211,5.0,9.0,53,0.00,,,0.05,WUHU216DAVISVP2,2013-05-23 19:11:00,
2013-05-23 15:16:00,79.0,57.7,29.74,SSW,204,4.0,15.0,48,0.00,,,0.05,WUHU216DAVISVP2,2013-05-23 19:16:00,
2013-05-23 15:21:00,79.2,58.5,29.74,SSW,195,7.0,15.0,49,0.00,,,0.05,WUHU216DAVISVP2,2013-05-23 19:21:00,
2013-05-23 15:26:00,79.3,59.2,29.74,SW,214,3.0,15.0,50,0.00,,,0.05,WUHU216DAVISVP2,2013-05-23 19:26:00,
2013-05-23 15:31:00,79.1,59.0,29.73,SSW,207,3.0,15.0,50,0.00,,,0.05,WUHU216DAVISVP2,2013-05-23 19:31:00,
2013-05-23 15:36:00,79.1,60.1,29.73,SSW,213,3.0,13.0,52,0.00,,,0.05,WUHU216DAVISVP2,2013-05-23 19:36:00,
2013-05-23 15:41:00,79.2,59.1,29.73,SW,215,0.0,13.0,50,0.00,,,0.05,WUHU216DAVISVP2,2013-05-23 19:41:00,
2013-05-23 15:46:00,79.3,59.2,29.73,SSW,198,5.0,11.0,50,0.00,,,0.05,WUHU216DAVISVP2,2013-05-23 19:46:00,
2013-05-23 15:51:00,78.9,58.8,29.73,SSW,207,4.0,10.0,50,0.00,,,0.05,WUHU216DAVISVP2,2013-05-23 19:51:00,
2013-05-23 15:56:00,78.7,59.7,29.73,SW,217,9.0,12.0,52,0.00,,,0.05,WUHU216DAVISVP2,2013-05-23 19:56:00,
2013-05-23 16:01:00,78.8,58.1,29.73,SSW,202,3.0,12.0,49,0.00,,,0.05,WUHU216DAVISVP2,2013-05-23 20:01:00,
2013-05-23 16:06:00,79.0,60.0,29.73,SSW,206,2.0,12.0,52,0.00,,,0.05,WUHU216DAVISVP2,2013-05-23 20:06:00,
2013-05-23 16:11:00,79.6,59.4,29.72,SSW,209,7.0,12.0,50,0.00,,,0.05,WUHU216DAVISVP2,2013-05-23 20:11:00,
2013-05-23 16:16:00,79.3,58.6,29.73,West,260,7.0,8.0,49,0.00,,,0.05,WUHU216DAVISVP2,2013-05-23 20:16:00,
2013-05-23 16:21:00,77.8,58.3,29.75,SW,222,16.0,25.0,51,0.00,,,0.05,WUHU216DAVISVP2,2013-05-23 20:21:00,
2013-05-23 16:26:00,74.2,59.1,29.77,SSW,197,5.0,25.0,59,0.00,,,0.05,WUHU216DAVISVP2,2013-05-23 20:26:00,
2013-05-23 16:31:00,70.9,60.2,29.77,WNW,301,5.0,24.0,69,0.00,,,0.05,WUHU216DAVISVP2,2013-05-23 20:31:00,
2013-05-23 16:36:00,68.8,60.3,29.77,NNW,347,3.0,24.0,74,0.00,,,0.05,WUHU216DAVISVP2,2013-05-23 20:36:00,
2013-05-23 16:41:00,67.6,61.3,29.77,NW,304,5.0,20.0,80,0.00,,,0.05,WUHU216DAVISVP2,2013-05-23 20:41:00,
2013-05-23 16:46:00,66.8,60.8,29.77,NNW,330,6.0,18.0,81,0.00,,,0.05,WUHU216DAVISVP2,2013-05-23 20:46:00,
2013-05-23 16:51:00,66.3,60.7,29.77,North,359,2.0,18.0,82,0.00,,,0.05,WUHU216DAVISVP2,2013-05-23 20:51:00,
2013-05-23 16:56:00,65.9,60.0,29.77,NW,322,2.0,10.0,81,0.00,,,0.05,WUHU216DAVISVP2,2013-05-23 20:56:00,
2013-05-23 17:01:00,65.7,60.1,29.77,North,9,0.0,8.0,82,0.00,,,0.05,WUHU216DAVISVP2,2013-05-23 21:01:00,
2013-05-23 17:06:00,65.5,59.6,29.77,North,9,1.0,8.0,81,0.00,,,0.05,WUHU216DAVISVP2,2013-05-23 21:06:00,
2013-05-23 17:11:00,65.4,59.8,29.77,NNE,30,0.0,4.0,82,0.00,,,0.05,WUHU216DAVISVP2,2013-05-23 21:11:00,
2013-05-23 17:16:00,65.6,60.0,29.78,East,83,0.0,3.0,82,0.00,,,0.05,WUHU216DAVISVP2,2013-05-23 21:16:00,
2013-05-23 17:21:00,65.8,59.5,29.78,East,86,2.0,3.0,80,0.00,,,0.05,WUHU216DAVISVP2,2013-05-23 21:21:00,
2013-05-23 17:26:00,65.8,60.2,29.77,ENE,64,1.0,3.0,82,0.00,,,0.05,WUHU216DAVISVP2,2013-05-23 21:26:00,
2013-05-23 17:31:00,65.7,59.8,29.78,South,184,1.0,4.0,81,0.00,,,0.05,WUHU216DAVISVP2,2013-05-23 21:31:00,
2013-05-23 17:36:00,65.8,59.9,29.78,WSW,239,0.0,4.0,81,0.00,,,0.05,WUHU216DAVISVP2,2013-05-23 21:36:00,
2013-05-23 17:41:00,65.9,59.3,29.78,SSW,209,0.0,4.0,79,0.00,,,0.05,WUHU216DAVISVP2,2013-05-23 21:41:00,
2013-05-23 17:46:00,65.9,59.6,29.77,East,87,0.0,4.0,80,0.00,,,0.05,WUHU216DAVISVP2,2013-05-23 21:46:00,
2013-05-23 17:51:00,66.0,59.4,29.77,SE,131,0.0,3.0,79,0.00,,,0.05,WUHU216DAVISVP2,2013-05-23 21:51:00,
2013-05-23 17:56:00,66.0,60.1,29.77,SW,218,4.0,5.0,81,0.00,,,0.05,WUHU216DAVISVP2,2013-05-23 21:56:00,
2013-05-23 18:01:00,66.1,59.8,29.77,SW,217,3.0,5.0,80,0.00,,,0.05,WUHU216DAVISVP2,2013-05-23 22:01:00,
2013-05-23 18:06:00,66.4,59.4,29.76,WSW,249,0.0,5.0,78,0.00,,,0.05,WUHU216DAVISVP2,2013-05-23 22:06:00,
2013-05-23 18:11:00,66.5,59.2,29.76,WSW,243,2.0,5.0,77,0.00,,,0.05,WUHU216DAVISVP2,2013-05-23 22:11:00,
2013-05-23 18:16:00,66.5,59.2,29.76,SSW,212,4.0,5.0,77,0.00,,,0.05,WUHU216DAVISVP2,2013-05-23 22:16:00,
2013-05-23 18:21:00,66.4,59.4,29.75,SW,217,0.0,5.0,78,0.00,,,0.05,WUHU216DAVISVP2,2013-05-23 22:21:00,
2013-05-23 18:26:00,66.4,59.8,29.75,South,180,0.0,5.0,79,0.00,,,0.05,WUHU216DAVISVP2,2013-05-23 22:26:00,
2013-05-23 18:31:00,66.3,60.0,29.75,SE,125,0.0,5.0,80,0.00,,,0.05,WUHU216DAVISVP2,2013-05-23 22:31:00,
2013-05-23 18:36:00,66.4,60.5,29.76,SE,125,0.0,5.0,81,0.00,,,0.05,WUHU216DAVISVP2,2013-05-23 22:36:00,
2013-05-23 18:41:00,66.5,60.6,29.75,South,173,0.0,3.0,81,0.00,,,0.05,WUHU216DAVISVP2,2013-05-23 22:41:00,
2013-05-23 18:46:00,66.5,60.2,29.75,South,169,0.0,3.0,80,0.00,,,0.05,WUHU216DAVISVP2,2013-05-23 22:46:00,
2013-05-23 18:51:00,66.6,60.3,29.75,South,170,0.0,3.0,80,0.00,,,0.05,WUHU216DAVISVP2,2013-05-23 22:51:00,
2013-05-23 18:56:00,66.6,60.3,29.75,South,170,0.0,2.0,80,0.00,,,0.05,WUHU216DAVISVP2,2013-05-23 22:56:00,
2013-05-23 19:01:00,66.7,60.1,29.75,South,191,2.0,2.0,79,0.00,,,0.05,WUHU216DAVISVP2,2013-05-23 23:01:00,
2013-05-23 19:06:00,66.8,60.2,29.75,SW,218,1.0,3.0,79,0.00,,,0.05,WUHU216DAVISVP2,2013-05-23 23:06:00,
2013-05-23 19:11:00,66.9,59.9,29.76,SW,216,2.0,6.0,78,0.00,,,0.05,WUHU216DAVISVP2,2013-05-23 23:11:00,
2013-05-23 19:16:00,66.8,59.8,29.76,WSW,242,1.0,6.0,78,0.00,,,0.05,WUHU216DAVISVP2,2013-05-23 23:16:00,
2013-05-23 19:21:00,66.8,59.8,29.76,South,175,1.0,6.0,78,0.00,,,0.05,WUHU216DAVISVP2,2013-05-23 23:21:00,
2013-05-23 19:26:00,66.7,60.1,29.76,SSW,208,3.0,7.0,79,0.00,,,0.05,WUHU216DAVISVP2,2013-05-23 23:26:00,
2013-05-23 19:31:00,66.5,59.9,29.76,SW,219,3.0,11.0,79,0.00,,,0.05,WUHU216DAVISVP2,2013-05-23 23:31:00,
2013-05-23 19:36:00,66.3,60.0,29.76,West,260,4.0,11.0,80,0.00,,,0.05,WUHU216DAVISVP2,2013-05-23 23:36:00,
2013-05-23 19:41:00,66.0,59.7,29.76,SW,221,6.0,11.0,80,0.00,,,0.05,WUHU216DAVISVP2,2013-05-23 23:41:00,
2013-05-23 19:46:00,65.7,59.8,29.76,SSW,208,6.0,10.0,81,0.00,,,0.05,WUHU216DAVISVP2,2013-05-23 23:46:00,
2013-05-23 19:51:00,65.6,59.7,29.76,SSW,210,3.0,10.0,81,0.00,,,0.05,WUHU216DAVISVP2,2013-05-23 23:51:00,
2013-05-23 19:56:00,65.4,59.8,29.76,SSW,204,2.0,10.0,82,0.00,,,0.05,WUHU216DAVISVP2,2013-05-23 23:56:00,
2013-05-23 20:01:00,65.3,59.7,29.76,South,191,4.0,8.0,82,0.00,,,0.05,WUHU216DAVISVP2,2013-05-24 00:01:00,
2013-05-23 20:06:00,65.3,59.7,29.76,SSW,193,3.0,8.0,82,0.00,,,0.05,WUHU216DAVISVP2,2013-05-24 00:06:00,
2013-05-23 20:11:00,65.2,59.6,29.77,SSW,195,2.0,8.0,82,0.00,,,0.05,WUHU216DAVISVP2,2013-05-24 00:11:00,
2013-05-23 20:16:00,65.0,59.4,29.77,SSW,195,1.0,8.0,82,0.00,,,0.05,WUHU216DAVISVP2,2013-05-24 00:16:00,
2013-05-23 20:21:00,65.0,59.4,29.78,SW,218,1.0,8.0,82,0.00,,,0.05,WUHU216DAVISVP2,2013-05-24 00:21:00,
2013-05-23 20:26:00,65.0,59.7,29.77,SSW,208,0.0,6.0,83,0.00,,,0.05,WUHU216DAVISVP2,2013-05-24 00:26:00,
2013-05-23 20:31:00,64.9,59.6,29.77,SSW,199,2.0,5.0,83,0.00,,,0.05,WUHU216DAVISVP2,2013-05-24 00:31:00,
2013-05-23 20:36:00,64.7,59.5,29.77,SSE,166,1.0,5.0,83,0.00,,,0.05,WUHU216DAVISVP2,2013-05-24 00:36:00,
2013-05-23 20:41:00,64.5,58.9,29.77,ENE,59,0.0,3.0,82,0.00,,,0.05,WUHU216DAVISVP2,2013-05-24 00:41:00,
2013-05-23 20:46:00,64.4,59.2,29.76,NE,53,0.0,3.0,83,0.00,,,0.05,WUHU216DAVISVP2,2013-05-24 00:46:00,
2013-05-23 20:51:00,64.3,58.7,29.76,SW,233,3.0,5.0,82,0.00,,,0.05,WUHU216DAVISVP2,2013-05-24 00:51:00,
2013-05-23 20:56:00,64.3,58.7,29.76,West,279,2.0,5.0,82,0.00,,,0.05,WUHU216DAVISVP2,2013-05-24 00:56:00,
2013-05-23 21:01:00,64.3,58.4,29.76,WSW,241,3.0,5.0,81,0.00,,,0.05,WUHU216DAVISVP2,2013-05-24 01:01:00,
2013-05-23 21:06:00,64.3,58.7,29.76,WSW,239,2.0,5.0,82,0.00,,,0.05,WUHU216DAVISVP2,2013-05-24 01:06:00,
2013-05-23 21:11:00,64.2,58.6,29.76,WSW,240,0.0,5.0,82,0.00,,,0.05,WUHU216DAVISVP2,2013-05-24 01:11:00,
2013-05-23 21:16:00,64.1,58.5,29.77,WSW,239,1.0,6.0,82,0.00,,,0.05,WUHU216DAVISVP2,2013-05-24 01:16:00,
2013-05-23 21:21:00,64.1,58.5,29.77,SSW,205,0.0,6.0,82,0.00,,,0.05,WUHU216DAVISVP2,2013-05-24 01:21:00,
2013-05-23 21:26:00,64.1,58.5,29.77,SSW,205,0.0,6.0,82,0.00,,,0.05,WUHU216DAVISVP2,2013-05-24 01:26:00,
2013-05-23 21:31:00,64.0,58.4,29.77,SSW,205,0.0,6.0,82,0.00,,,0.05,WUHU216DAVISVP2,2013-05-24 01:31:00,
2013-05-23 21:36:00,63.9,58.7,29.77,SSW,205,0.0,2.0,83,0.00,,,0.05,WUHU216DAVISVP2,2013-05-24 01:36:00,
2013-05-23 21:41:00,63.7,58.5,29.77,SSW,205,0.0,1.0,83,0.00,,,0.05,WUHU216DAVISVP2,2013-05-24 01:41:00,
2013-05-23 21:46:00,63.6,58.7,29.77,South,191,0.0,5.0,84,0.00,,,0.05,WUHU216DAVISVP2,2013-05-24 01:46:00,
2013-05-23 21:51:00,63.6,58.7,29.77,SW,215,0.0,5.0,84,0.00,,,0.05,WUHU216DAVISVP2,2013-05-24 01:51:00,
2013-05-23 21:56:00,63.5,58.6,29.77,SW,215,0.0,5.0,84,0.00,,,0.05,WUHU216DAVISVP2,2013-05-24 01:56:00,
2013-05-23 22:01:00,63.3,58.7,29.77,South,176,0.0,5.0,85,0.00,,,0.05,WUHU216DAVISVP2,2013-05-24 02:01:00,
2013-05-23 22:06:00,63.2,58.6,29.78,South,191,0.0,4.0,85,0.00,,,0.05,WUHU216DAVISVP2,2013-05-24 02:06:00,
2013-05-23 22:11:00,63.2,58.9,29.78,SSW,207,2.0,4.0,86,0.00,,,0.05,WUHU216DAVISVP2,2013-05-24 02:11:00,
2013-05-23 22:16:00,63.2,58.9,29.79,NW,317,5.0,7.0,86,0.00,,,0.05,WUHU216DAVISVP2,2013-05-24 02:16:00,
2013-05-23 22:21:00,63.1,59.5,29.80,WNW,292,6.0,9.0,88,0.02,,,0.07,WUHU216DAVISVP2,2013-05-24 02:21:00,
2013-05-23 22:26:00,62.6,58.7,29.79,NNW,332,4.0,9.0,87,0.02,,,0.07,WUHU216DAVISVP2,2013-05-24 02:26:00,
2013-05-23 22:31:00,62.3,58.4,29.79,NNW,339,1.0,9.0,87,0.02,,,0.07,WUHU216DAVISVP2,2013-05-24 02:31:00,
2013-05-23 22:36:00,62.0,58.4,29.80,NNW,345,3.0,9.0,88,0.02,,,0.07,WUHU216DAVISVP2,2013-05-24 02:36:00,
2013-05-23 22:41:00,61.8,58.2,29.80,NW,308,2.0,9.0,88,0.02,,,0.07,WUHU216DAVISVP2,2013-05-24 02:41:00,
2013-05-23 22:46:00,61.6,58.3,29.80,NW,320,0.0,9.0,89,0.02,,,0.07,WUHU216DAVISVP2,2013-05-24 02:46:00,
2013-05-23 22:51:00,61.5,58.5,29.80,NW,320,1.0,9.0,90,0.03,,,0.08,WUHU216DAVISVP2,2013-05-24 02:51:00,
2013-05-23 22:56:00,61.4,58.4,29.80,SW,233,0.0,6.0,90,0.03,,,0.08,WUHU216DAVISVP2,2013-05-24 02:56:00,
2013-05-23 23:01:00,61.2,58.5,29.80,SW,233,0.0,4.0,91,0.03,,,0.08,WUHU216DAVISVP2,2013-05-24 03:01:00,
2013-05-23 23:06:00,61.1,58.4,29.80,NW,311,0.0,3.0,91,0.03,,,0.08,WUHU216DAVISVP2,2013-05-24 03:06:00,
2013-05-23 23:11:00,61.0,58.3,29.80,NNW,341,0.0,3.0,91,0.03,,,0.08,WUHU216DAVISVP2,2013-05-24 03:11:00,
2013-05-23 23:16:00,60.9,58.5,29.80,West,263,0.0,5.0,92,0.03,,,0.08,WUHU216DAVISVP2,2013-05-24 03:16:00,
2013-05-23 23:21:00,60.7,58.3,29.80,NE,41,0.0,5.0,92,0.02,,,0.09,WUHU216DAVISVP2,2013-05-24 03:21:00,
2013-05-23 23:26:00,60.7,58.3,29.80,NE,41,0.0,5.0,92,0.02,,,0.09,WUHU216DAVISVP2,2013-05-24 03:26:00,
2013-05-23 23:31:00,60.6,58.2,29.80,NE,41,0.0,3.0,92,0.02,,,0.09,WUHU216DAVISVP2,2013-05-24 03:31:00,
2013-05-23 23:36:00,60.5,58.1,29.80,NE,41,0.0,2.0,92,0.02,,,0.09,WUHU216DAVISVP2,2013-05-24 03:36:00,
2013-05-23 23:41:00,60.4,58.4,29.80,NE,41,0.0,0.0,93,0.02,,,0.09,WUHU216DAVISVP2,2013-05-24 03:41:00,
2013-05-23 23:46:00,60.4,58.4,29.80,NE,41,0.0,0.0,93,0.02,,,0.09,WUHU216DAVISVP2,2013-05-24 03:46:00,
2013-05-23 23:51:00,60.3,58.6,29.79,NE,41,0.0,0.0,94,0.01,,,0.09,WUHU216DAVISVP2,2013-05-24 03:51:00,
2013-05-23 23:56:00,60.2,58.5,29.79,NE,41,0.0,1.0,94,0.01,,,0.09,WUHU216DAVISVP2,2013-05-24 03:56:00,